Back to catalog

HAWK-6A

AliveMilitaryVLEO
NORAD 55327·PAYLOAD·🇺🇸 United States

Launched Jan 24, 2023 from Wallops Flight Facility

Loading…

Next Passes (next 24 hours)

TLE

FreshSource: Space-Track

Epoch: Sep 14, 2026, 03:34 UTC

1 55327U 23011D   26257.14926506  .00003947  00000-0  16946-3 0  9996
2 55327  40.4974 191.3703 0003955 278.4633  81.5728 15.23598441201423

Track HAWK-6A in real time with AllMySat

Download on the App Store